SCP
-0 0 0 0 0 -0 -0 -0 -0 0 -0 -0 -0 -0 0 -0 0 0 0 0 0 -0 -0 0 0 0 0 0 0 0 0 0 0 0 0 0 0 0 0 0 0 0 0 0 0
0 0 0 0 0 0 0 0 0 0 0 -0 -0 0 -0 0 0 0 0 0 0 -0 0 0 0 0 0 0 0 0 0 0 0 0 0 0 0 0 0 0 0 0 0 0 0
0 0 0 0 0 0 0 0 0 0 0 0 0 0 -0 0 0 0 0 0 0 0 0 0 0 0 0 0 0 0 0 0 0 0 0 0 0 0 0 0 0 0 0 0 0
0 0 0 0 0 0 0 0 0 0 0 0 0 0 0 0 0 0 0 0 0 0 0 0 0 0 0 0 0 0 0 0 0 0 0 0 0 0 0 0 0 0 0 0 0
0 0 0 0 0 0 0 0 0 0 0 0 0 0 0 0 0 0 0 0 0 0 0 0 0 0 0 0 0 0 0 0 0 0 0 0 0 0 0 0 0 0 0 0 0
0 0 0 0 0 0 0 0 0 0 0 0 0 0 0 0 0 0 0 0 0 0 0 0 0 0 0 0 0 0 0 0 0 0 0 0 0 0 0 0 0 0 0 0 0
0 0 0 0 0 0 0 0 0 -0 0 0 0 0 0 0 0 0 0 0 0 0 0 0 0 0 0 0 0 0 0 0 0 0 0 0 0 0 0 0 -0 0 0 0 0
0 0 0 0 0 0 0 0 0 0 0 0 0 0 0 0 0 0 0 0 0 0 0 0 0 0 0 0 0 0 0 0 0 0 0 0 0 0 0 0 -0 -0 0 0 0
0 0 0 0 0 0 0 0 0 0 0 0 0 0 0 0 0 0 0 0 0 0 0 0 0 0 0 0 0 0 0 0 0 0 0 0 0 -0 0 0 0 0 0 0 0
0 0 0 0 0 0 0 -0 0 0 0 -0 0 0 0 0 0 0 0 0 0 0 0 0 0 0 0 0 0 0 0 0 0 0 0 0 0 -0 0 0 0 0 0 0 0
0 0 0 0 0 0 0 -0 -0 -0 0 0 0 0 0 0 0 0 0 0 0 0 0 0 0 0 0 0 0 0 0 0 0 0 0 0 -0 -0 -0 0 0 0 0 0 0
0 0 0 0 0 0 -0 -0 -0 0 -0 0 0 0 0 0 0 0 0 0 0 0 0 0 0 0 0 0 0 0 0 0 0 0 0 -0 -0 -0 0 0 0 0 0 0 0
0 0 0 0 0 0 -0 -0 -0 -0 -0 0 0 0 0 0 0 0 0 0 0 0 0 0 0 0 0 0 0 0 0 0 0 0 0 0 -0 -0 0 0 0 0 0 0 0
0 0 0 0 0 0 0 -0 -0 -0 0 0 0 0 0 0 0 0 0 0 0 0 0 0 0 0 0 0 0 0 0 0 0 0 0 0 0 0 0 0 0 0 0 0 0
0 0 0 0 0 0 0 0 0 -0 0 0 0 0 0 0 0 0 0 0 0 0 0 0 0 0 0 0 0 0 0 0 0 0 0 0 0 0 0 0 0 0 0 0 0
0 0 0 0 0 0 0 0 0 0 0 0 0 0 0 0 0 0 0 0 0 0 0 0 0 0 0 0 0 0 0 0 0 0 0 0 0 0 0 0 0 0 0 0 0
0 0 0 0 0 0 0 0 0 0 0 0 0 0 0 0 0 0 0 0 0 0 0 0 0 0 0 0 0 0 0 0 0 0 0 0 0 0 0 0 0 0 0 0 0
0 0 0 0 0 0 0 0 0 0 0 0 0 0 0 0 0 0 0 0 0 0 0 0 0 0 0 0 0 0 0 0 0 0 0 0 0 0 0 0 0 0 0 0 0
0 0 0 0 0 0 0 0 0 0 0 0 0 0 0 0 0 0 0 0 0 0 0 0 0 0 0 0 0 0 0 0 0 0 0 0 0 0 0 0 0 0 0 0 0
0 0 0 0 0 0 0 0 0 0 0 0 0 0 0 0 0 0 0 0 0 0 0 0 0 0 0 0 0 0 0 0 0 0 0 0 0 0 0 0 0 0 0 0 0
0 0 0 0 0 0 0 0 0 0 0 0 0 0 0 0 0 0 0 0 0 0 0 0 0 0 0 0 0 0 0 0 0 0 0 0 0 0 0 0 0 0 0 0 0
0 0 0 0 0 0 0 0 0 0 0 0 0 0 0 0 0 0 0 0 0 0 0 0 0 0 0 0 0 0 0 0 0 0 0 0 0 0 0 0 0 0 0 0 0
0 0 0 0 0 0 0 0 0 0 0 0 0 0 0 0 0 0 0 0 0 0 0 0 0 0 0 0 0 0 0 0 0 0 0 0 0 0 0 0 0 0 0 0 0
0 0 0 0 0 0 0 0 0 0 0 0 0 0 0 0 0 0 0 0 0 0 0 0 0 0 0 0 0 0 0 0 0 0 0 0 0 0 0 0 0 -0 0 0 0
0 0 0 0 0 0 0 0 0 0 0 0 0 0 0 0 0 0 0 0 0 0 0 0 0 0 0 0 0 0 0 0 0 0 0 0 0 0 0 0 0 0 0 0 0
0 0 0 0 0 0 0 0 0 0 0 0 0 0 0 0 0 0 0 0 0 0 0 0 0 0 0 0 0 0 0 0 0 0 0 0 0 0 0 0 0 0 0 0 0
0 0 0 0 0 0 0 0 0 0 0 0 0 0 0 0 0 0 0 0 0 0 0 0 0 0 0 0 0 0 0 0 0 0 0 0 0 0 0 0 0 0 0 0 0
Wind_Speed_500mb
30 30 33 37 41 43 45 47 46 47 46 43 39 34 32 27 19 12 10 12 15 15 10 4 0 1 3 4 4 4 6 7 5 4 6 1 7 4 2 9 6 6 7 14 36
30 31 34 36 40 45 47 46 46 46 46 44 39 33 28 24 11 10 9 13 16 15 10 2 3 1 5 3 2 4 4 4 4 6 8 7 8 8 9 12 9 8 14 28 36
31 34 37 39 43 47 49 49 49 47 48 41 38 32 27 18 3 8 11 14 16 15 11 5 1 6 4 3 2 3 4 2 2 7 10 8 9 8 10 12 14 16 23 35 32
32 34 37 40 45 49 51 53 54 53 49 42 35 32 27 13 7 14 20 17 14 12 9 4 3 5 6 6 4 7 5 4 2 3 5 7 3 7 14 6 2 8 27 36 31
31 33 35 38 44 48 49 48 49 53 47 41 29 36 21 8 5 15 19 16 12 9 5 2 2 5 6 7 7 9 2 4 4 6 8 7 11 11 14 13 9 23 31 31 27
27 31 34 37 41 44 46 49 53 49 46 41 34 33 17 2 5 14 19 14 12 6 3 2 5 6 5 4 7 1 6 7 7 6 5 8 9 5 3 12 18 30 29 29 27
27 30 33 35 38 42 44 48 49 48 49 31 43 28 9 4 5 13 18 14 14 7 2 2 4 2 5 6 0 1 10 8 11 7 3 4 15 15 6 15 28 30 27 27 25
26 30 32 34 37 40 42 46 45 49 35 40 37 16 5 5 9 15 17 11 11 6 3 3 4 6 2 6 2 4 5 7 5 8 3 4 9 3 8 23 31 30 27 23 25
29 32 35 38 40 43 46 48 46 40 25 48 16 12 4 5 14 20 15 8 3 4 2 4 4 2 4 5 2 4 8 8 3 6 3 10 7 4 7 21 31 30 25 26 26
28 31 35 39 43 46 48 50 47 24 50 28 8 9 2 10 13 14 13 7 1 1 2 1 2 4 4 9 6 6 9 6 9 3 8 11 25 14 9 23 32 33 29 25 32
29 33 36 40 42 47 49 45 40 10 48 17 31 13 17 16 4 15 12 4 3 2 5 4 6 10 5 9 3 3 6 11 4 1 7 14 22 22 16 21 33 39 33 32 32
30 31 34 39 42 36 45 36 24 18 21 23 7 8 8 14 6 16 10 5 3 2 4 6 11 3 0 2 9 9 13 19 9 2 8 11 24 23 21 31 38 43 39 35 36
35 36 35 38 41 32 39 36 36 35 11 9 3 1 1 9 5 11 13 5 4 5 4 12 4 5 4 7 11 13 19 12 9 2 7 16 23 23 16 30 27 38 41 36 42
37 38 38 36 23 36 28 33 34 36 7 5 2 1 1 3 2 5 6 4 1 4 4 11 2 5 9 11 10 9 4 9 8 6 7 3 12 10 12 20 27 38 44 42 43
41 41 40 36 31 25 23 23 23 20 13 0 3 3 3 4 3 4 2 1 5 2 4 1 4 7 11 8 10 1 0 2 3 6 4 12 8 9 5 17 30 38 44 45 45
44 43 42 38 32 23 13 13 16 6 14 2 1 1 5 4 4 1 2 1 3 4 7 9 2 6 2 3 3 13 7 5 3 4 8 16 17 12 14 10 2 0 28 38 46
50 47 44 40 26 19 12 5 3 8 2 2 2 3 4 6 6 8 7 9 9 6 8 5 10 3 6 8 6 10 10 4 7 7 9 3 10 18 14 9 11 14 12 27 42
45 55 51 43 36 28 10 6 11 9 11 2 2 4 11 4 8 7 6 11 16 8 5 7 8 15 13 9 6 18 9 7 9 6 2 5 12 1 5 17 18 16 12 23 40
60 56 49 42 39 24 16 5 9 9 6 4 2 12 12 6 8 6 13 11 9 26 17 12 8 6 6 4 5 10 14 4 1 1 7 9 7 13 4 10 11 3 14 26 38
54 49 49 37 31 24 5 12 11 11 8 4 11 11 14 7 10 10 10 7 5 18 6 3 9 3 6 4 2 7 11 6 7 8 11 8 9 8 12 18 10 4 18 27 30
35 15 17 21 27 17 7 12 13 24 15 12 13 18 17 9 12 6 8 3 2 6 3 4 6 5 4 16 17 8 9 6 4 4 7 5 5 6 11 16 10 8 22 29 31
33 6 28 47 12 8 7 11 9 6 6 5 7 10 10 2 5 9 12 8 1 12 9 8 5 11 12 4 4 6 11 22 11 10 5 5 6 8 8 12 3 12 26 26 29
12 11 48 58 9 8 6 7 6 9 10 14 17 18 16 11 10 19 13 2 6 12 9 9 8 6 6 5 4 9 11 10 5 1 15 8 5 12 8 15 10 12 22 23 23
16 7 13 31 10 7 11 9 10 20 15 12 8 13 12 17 19 10 11 4 1 4 5 10 7 14 16 1 3 8 14 19 23 17 24 27 27 15 17 11 9 11 18 21 23
21 11 21 11 14 15 16 9 12 13 18 25 11 26 18 12 20 23 26 11 6 6 2 7 15 18 23 14 8 18 24 23 28 33 27 29 30 23 14 11 14 10 25 27 26
20 14 16 7 9 35 24 16 26 15 18 13 23 25 30 25 26 9 21 19 20 11 16 14 5 13 12 21 21 32 33 29 35 39 35 37 38 26 33 30 25 24 34 38 33
56 28 19 17 12 14 13 24 23 24 25 26 31 26 28 28 24 8 3 2 5 8 17 8 11 13 14 5 9 21 35 39 41 34 25 37 23 12 12 15 17 19 29 36 36
Wind_Direction_500mb
26 24 25 24 19 15 10 7 6 5 2 355 352 350 349 349 349 10 19 17 9 359 356 0 148 205 89 72 83 112 249 291 301 274 30 113 230 170 194 160 186 199 164 152 168
19 20 21 20 14 10 8 5 3 3 359 354 350 348 349 346 350 47 49 20 360 354 355 338 224 103 93 74 36 237 250 335 341 321 302 311 250 192 197 181 194 203 188 165 170
15 16 15 14 11 6 2 2 359 360 356 355 352 351 351 348 41 23 359 342 339 340 336 346 94 120 134 127 185 174 264 84 296 282 286 273 236 204 225 213 213 215 178 166 165
11 11 11 10 8 5 3 360 355 352 353 354 352 356 353 5 350 341 335 329 326 330 337 330 94 138 153 175 182 256 241 239 290 286 279 263 257 230 234 264 235 213 178 166 168
9 8 9 8 7 5 2 360 354 349 349 352 350 349 354 14 28 347 340 337 328 327 316 308 177 173 195 161 176 237 274 234 258 260 260 275 254 277 250 234 226 166 166 167 166
8 6 6 7 9 6 2 359 353 350 347 346 350 352 357 93 351 3 0 356 347 342 354 174 181 180 126 172 218 150 274 267 255 234 242 261 258 271 221 214 173 167 167 171 175
11 9 5 4 4 4 359 355 352 346 338 346 345 350 15 90 329 353 0 358 357 10 25 140 178 166 150 161 221 248 280 248 223 222 217 277 238 236 235 176 173 175 174 178 178
11 8 5 1 359 359 355 353 347 342 344 345 337 351 34 335 328 316 329 337 1 15 44 98 115 139 144 141 101 238 255 257 121 188 147 224 275 132 213 181 180 183 180 183 183
5 4 1 358 356 353 352 352 346 339 7 341 346 354 105 347 334 326 334 316 316 351 71 98 131 119 153 193 221 210 257 240 217 208 159 229 285 59 201 211 190 189 197 184 174
351 351 351 351 351 351 350 351 348 336 351 350 7 343 76 321 334 347 345 345 296 149 65 26 57 225 179 202 232 201 231 220 264 134 225 226 259 252 234 213 220 202 196 199 184
332 338 343 343 347 347 351 359 0 346 336 300 294 280 300 328 357 7 358 27 18 22 280 17 242 241 281 248 273 166 233 261 246 98 265 247 268 263 226 219 218 220 210 198 193
318 324 332 335 341 348 352 21 13 326 312 314 307 270 302 338 337 7 13 94 66 286 309 252 251 95 111 217 227 228 256 256 255 188 257 274 279 273 224 226 217 209 213 203 183
309 315 324 330 335 345 358 6 355 348 292 308 318 207 308 346 332 344 16 33 92 174 241 258 25 333 236 194 216 230 241 247 270 228 226 295 268 239 216 221 215 209 207 206 196
300 305 312 323 332 340 351 354 353 347 314 263 202 181 177 345 232 325 25 35 227 273 209 262 145 238 241 255 219 259 248 257 243 227 259 298 285 219 201 220 219 210 206 199 196
292 296 302 311 316 328 334 349 355 348 323 80 157 231 254 236 280 206 349 51 239 230 228 270 214 210 226 253 212 324 157 215 258 197 303 203 259 236 195 230 227 216 214 208 198
282 286 292 300 307 311 330 344 339 52 247 297 228 263 262 206 218 204 172 29 142 228 225 262 243 236 284 121 262 145 125 105 116 201 234 220 227 248 223 227 83 70 226 212 196
275 278 280 288 287 282 303 24 11 193 29 228 243 199 254 252 229 203 192 196 222 260 226 215 210 189 193 194 131 209 184 244 228 210 250 89 221 268 276 297 308 299 256 209 193
273 264 268 272 267 259 202 73 218 197 254 134 170 198 240 190 202 191 238 251 219 207 240 244 242 185 172 235 228 195 226 231 273 249 66 133 231 279 27 308 299 285 241 185 177
273 261 254 263 260 245 159 156 219 213 248 221 170 268 250 232 243 224 225 242 226 197 211 198 238 151 199 187 222 160 215 19 69 56 269 231 239 260 357 14 358 345 164 167 165
269 247 257 261 246 195 146 225 225 219 140 51 218 248 270 240 210 212 215 163 232 213 291 218 267 184 132 174 137 241 140 169 196 232 236 208 260 232 10 351 358 178 171 157 152
250 227 234 213 177 168 207 218 226 241 193 187 222 257 250 278 236 240 298 201 239 160 235 178 253 118 173 209 206 165 208 219 288 242 268 277 150 105 10 351 326 190 177 165 159
224 202 189 168 142 201 190 201 211 236 196 193 206 251 245 212 280 257 260 253 70 159 197 196 262 247 238 84 336 281 253 218 236 203 237 306 246 131 2 346 302 174 176 174 169
190 136 179 169 188 197 211 241 245 191 204 187 209 211 210 208 228 232 259 202 230 188 203 178 208 258 223 163 163 228 202 228 243 250 217 233 212 156 50 45 53 162 174 174 171
169 147 176 207 244 171 178 218 207 212 227 175 191 198 192 208 216 236 233 209 253 205 169 170 225 235 247 2 123 205 208 218 225 243 248 233 260 226 273 4 61 162 182 186 179
212 204 180 196 217 206 188 187 186 200 215 203 210 217 192 229 220 226 231 231 219 197 75 179 236 229 232 211 245 267 251 227 221 239 246 259 257 256 266 312 329 234 193 190 187
204 181 177 200 196 201 195 203 199 204 179 199 222 207 217 228 226 218 227 215 219 181 196 187 263 222 235 245 222 248 245 245 244 244 250 257 262 272 288 288 271 245 202 195 189
218 214 210 194 164 177 200 206 222 211 219 217 212 219 209 215 234 243 223 158 291 229 188 214 218 190 267 261 265 256 231 235 240 243 263 255 283 336 289 298 295 273 222 202 181
Wind_Speed_850mb
30 30 33 37 41 43 45 47 46 47 46 43 39 34 32 27 19 12 10 12 15 15 10 4 0 1 3 4 4 4 6 7 5 4 6 1 7 4 2 9 6 6 7 14 36
30 31 34 36 40 45 47 46 46 46 46 44 39 33 28 24 11 10 9 13 16 15 10 2 3 1 5 3 2 4 4 4 4 6 8 7 8 8 9 12 9 8 14 28 36
31 34 37 39 43 47 49 49 49 47 48 41 38 32 27 18 3 8 11 14 16 15 11 5 1 6 4 3 2 3 4 2 2 7 10 8 9 8 10 12 14 16 23 35 32
32 34 37 40 45 49 51 53 54 53 49 42 35 32 27 13 7 14 20 17 14 12 9 4 3 5 6 6 4 7 5 4 2 3 5 7 3 7 14 6 2 8 27 36 31
31 33 35 38 44 48 49 48 49 53 47 41 29 36 21 8 5 15 19 16 12 9 5 2 2 5 6 7 7 9 2 4 4 6 8 7 11 11 14 13 9 23 31 31 27
27 31 34 37 41 44 46 49 53 49 46 41 34 33 17 2 5 14 19 14 12 6 3 2 5 6 5 4 7 1 6 7 7 6 5 8 9 5 3 12 18 30 29 29 27
27 30 33 35 38 42 44 48 49 48 49 31 43 28 9 4 5 13 18 14 14 7 2 2 4 2 5 6 0 1 10 8 11 7 3 4 15 15 6 15 28 30 27 27 25
26 30 32 34 37 40 42 46 45 49 35 40 37 16 5 5 9 15 17 11 11 6 3 3 4 6 2 6 2 4 5 7 5 8 3 4 9 3 8 23 31 30 27 23 25
29 32 35 38 40 43 46 48 46 40 25 48 16 12 4 5 14 20 15 8 3 4 2 4 4 2 4 5 2 4 8 8 3 6 3 10 7 4 7 21 31 30 25 26 26
28 31 35 39 43 46 48 50 47 24 50 28 8 9 2 10 13 14 13 7 1 1 2 1 2 4 4 9 6 6 9 6 9 3 8 11 25 14 9 23 32 33 29 25 32
29 33 36 40 42 47 49 45 40 10 48 17 31 13 17 16 4 15 12 4 3 2 5 4 6 10 5 9 3 3 6 11 4 1 7 14 22 22 16 21 33 39 33 32 32
30 31 34 39 42 36 45 36 24 18 21 23 7 8 8 14 6 16 10 5 3 2 4 6 11 3 0 2 9 9 13 19 9 2 8 11 24 23 21 31 38 43 39 35 36
35 36 35 38 41 32 39 36 36 35 11 9 3 1 1 9 5 11 13 5 4 5 4 12 4 5 4 7 11 13 19 12 9 2 7 16 23 23 16 30 27 38 41 36 42
37 38 38 36 23 36 28 33 34 36 7 5 2 1 1 3 2 5 6 4 1 4 4 11 2 5 9 11 10 9 4 9 8 6 7 3 12 10 12 20 27 38 44 42 43
41 41 40 36 31 25 23 23 23 20 13 0 3 3 3 4 3 4 2 1 5 2 4 1 4 7 11 8 10 1 0 2 3 6 4 12 8 9 5 17 30 38 44 45 45
44 43 42 38 32 23 13 13 16 6 14 2 1 1 5 4 4 1 2 1 3 4 7 9 2 6 2 3 3 13 7 5 3 4 8 16 17 12 14 10 2 0 28 38 46
50 47 44 40 26 19 12 5 3 8 2 2 2 3 4 6 6 8 7 9 9 6 8 5 10 3 6 8 6 10 10 4 7 7 9 3 10 18 14 9 11 14 12 27 42
45 55 51 43 36 28 10 6 11 9 11 2 2 4 11 4 8 7 6 11 16 8 5 7 8 15 13 9 6 18 9 7 9 6 2 5 12 1 5 17 18 16 12 23 40
60 56 49 42 39 24 16 5 9 9 6 4 2 12 12 6 8 6 13 11 9 26 17 12 8 6 6 4 5 10 14 4 1 1 7 9 7 13 4 10 11 3 14 26 38
54 49 49 37 31 24 5 12 11 11 8 4 11 11 14 7 10 10 10 7 5 18 6 3 9 3 6 4 2 7 11 6 7 8 11 8 9 8 12 18 10 4 18 27 30
35 15 17 21 27 17 7 12 13 24 15 12 13 18 17 9 12 6 8 3 2 6 3 4 6 5 4 16 17 8 9 6 4 4 7 5 5 6 11 16 10 8 22 29 31
33 6 28 47 12 8 7 11 9 6 6 5 7 10 10 2 5 9 12 8 1 12 9 8 5 11 12 4 4 6 11 22 11 10 5 5 6 8 8 12 3 12 26 26 29
12 11 48 58 9 8 6 7 6 9 10 14 17 18 16 11 10 19 13 2 6 12 9 9 8 6 6 5 4 9 11 10 5 1 15 8 5 12 8 15 10 12 22 23 23
16 7 13 31 10 7 11 9 10 20 15 12 8 13 12 17 19 10 11 4 1 4 5 10 7 14 16 1 3 8 14 19 23 17 24 27 27 15 17 11 9 11 18 21 23
21 11 21 11 14 15 16 9 12 13 18 25 11 26 18 12 20 23 26 11 6 6 2 7 15 18 23 14 8 18 24 23 28 33 27 29 30 23 14 11 14 10 25 27 26
20 14 16 7 9 35 24 16 26 15 18 13 23 25 30 25 26 9 21 19 20 11 16 14 5 13 12 21 21 32 33 29 35 39 35 37 38 26 33 30 25 24 34 38 33
56 28 19 17 12 14 13 24 23 24 25 26 31 26 28 28 24 8 3 2 5 8 17 8 11 13 14 5 9 21 35 39 41 34 25 37 23 12 12 15 17 19 29 36 36
Wind_Direction_850mb
26 24 25 24 19 15 10 7 6 5 2 355 352 350 349 349 349 10 19 17 9 359 356 0 148 205 89 72 83 112 249 291 301 274 30 113 230 170 194 160 186 199 164 152 168
19 20 21 20 14 10 8 5 3 3 359 354 350 348 349 346 350 47 49 20 360 354 355 338 224 103 93 74 36 237 250 335 341 321 302 311 250 192 197 181 194 203 188 165 170
15 16 15 14 11 6 2 2 359 360 356 355 352 351 351 348 41 23 359 342 339 340 336 346 94 120 134 127 185 174 264 84 296 282 286 273 236 204 225 213 213 215 178 166 165
11 11 11 10 8 5 3 360 355 352 353 354 352 356 353 5 350 341 335 329 326 330 337 330 94 138 153 175 182 256 241 239 290 286 279 263 257 230 234 264 235 213 178 166 168
9 8 9 8 7 5 2 360 354 349 349 352 350 349 354 14 28 347 340 337 328 327 316 308 177 173 195 161 176 237 274 234 258 260 260 275 254 277 250 234 226 166 166 167 166
8 6 6 7 9 6 2 359 353 350 347 346 350 352 357 93 351 3 0 356 347 342 354 174 181 180 126 172 218 150 274 267 255 234 242 261 258 271 221 214 173 167 167 171 175
11 9 5 4 4 4 359 355 352 346 338 346 345 350 15 90 329 353 0 358 357 10 25 140 178 166 150 161 221 248 280 248 223 222 217 277 238 236 235 176 173 175 174 178 178
11 8 5 1 359 359 355 353 347 342 344 345 337 351 34 335 328 316 329 337 1 15 44 98 115 139 144 141 101 238 255 257 121 188 147 224 275 132 213 181 180 183 180 183 183
5 4 1 358 356 353 352 352 346 339 7 341 346 354 105 347 334 326 334 316 316 351 71 98 131 119 153 193 221 210 257 240 217 208 159 229 285 59 201 211 190 189 197 184 174
351 351 351 351 351 351 350 351 348 336 351 350 7 343 76 321 334 347 345 345 296 149 65 26 57 225 179 202 232 201 231 220 264 134 225 226 259 252 234 213 220 202 196 199 184
332 338 343 343 347 347 351 359 0 346 336 300 294 280 300 328 357 7 358 27 18 22 280 17 242 241 281 248 273 166 233 261 246 98 265 247 268 263 226 219 218 220 210 198 193
318 324 332 335 341 348 352 21 13 326 312 314 307 270 302 338 337 7 13 94 66 286 309 252 251 95 111 217 227 228 256 256 255 188 257 274 279 273 224 226 217 209 213 203 183
309 315 324 330 335 345 358 6 355 348 292 308 318 207 308 346 332 344 16 33 92 174 241 258 25 333 236 194 216 230 241 247 270 228 226 295 268 239 216 221 215 209 207 206 196
300 305 312 323 332 340 351 354 353 347 314 263 202 181 177 345 232 325 25 35 227 273 209 262 145 238 241 255 219 259 248 257 243 227 259 298 285 219 201 220 219 210 206 199 196
292 296 302 311 316 328 334 349 355 348 323 80 157 231 254 236 280 206 349 51 239 230 228 270 214 210 226 253 212 324 157 215 258 197 303 203 259 236 195 230 227 216 214 208 198
282 286 292 300 307 311 330 344 339 52 247 297 228 263 262 206 218 204 172 29 142 228 225 262 243 236 284 121 262 145 125 105 116 201 234 220 227 248 223 227 83 70 226 212 196
275 278 280 288 287 282 303 24 11 193 29 228 243 199 254 252 229 203 192 196 222 260 226 215 210 189 193 194 131 209 184 244 228 210 250 89 221 268 276 297 308 299 256 209 193
273 264 268 272 267 259 202 73 218 197 254 134 170 198 240 190 202 191 238 251 219 207 240 244 242 185 172 235 228 195 226 231 273 249 66 133 231 279 27 308 299 285 241 185 177
273 261 254 263 260 245 159 156 219 213 248 221 170 268 250 232 243 224 225 242 226 197 211 198 238 151 199 187 222 160 215 19 69 56 269 231 239 260 357 14 358 345 164 167 165
269 247 257 261 246 195 146 225 225 219 140 51 218 248 270 240 210 212 215 163 232 213 291 218 267 184 132 174 137 241 140 169 196 232 236 208 260 232 10 351 358 178 171 157 152
250 227 234 213 177 168 207 218 226 241 193 187 222 257 250 278 236 240 298 201 239 160 235 178 253 118 173 209 206 165 208 219 288 242 268 277 150 105 10 351 326 190 177 165 159
224 202 189 168 142 201 190 201 211 236 196 193 206 251 245 212 280 257 260 253 70 159 197 196 262 247 238 84 336 281 253 218 236 203 237 306 246 131 2 346 302 174 176 174 169
190 136 179 169 188 197 211 241 245 191 204 187 209 211 210 208 228 232 259 202 230 188 203 178 208 258 223 163 163 228 202 228 243 250 217 233 212 156 50 45 53 162 174 174 171
169 147 176 207 244 171 178 218 207 212 227 175 191 198 192 208 216 236 233 209 253 205 169 170 225 235 247 2 123 205 208 218 225 243 248 233 260 226 273 4 61 162 182 186 179
212 204 180 196 217 206 188 187 186 200 215 203 210 217 192 229 220 226 231 231 219 197 75 179 236 229 232 211 245 267 251 227 221 239 246 259 257 256 266 312 329 234 193 190 187
204 181 177 200 196 201 195 203 199 204 179 199 222 207 217 228 226 218 227 215 219 181 196 187 263 222 235 245 222 248 245 245 244 244 250 257 262 272 288 288 271 245 202 195 189
218 214 210 194 164 177 200 206 222 211 219 217 212 219 209 215 234 243 223 158 291 229 188 214 218 190 267 261 265 256 231 235 240 243 263 255 283 336 289 298 295 273 222 202 181